Home > Weather > Shymkent > Past weeks

Flag for Kazakhstan Past Weather in Shymkent, Kazakhstan — Yesterday and Last 2 Weeks

Now
75 °F

Clear.


Feels Like: 77 °F
Forecast: 71 / 94 °F
Wind: 8 mph from Southeast

Location: Shymkent Airport

Current Time: Jun 25, 2016 at 11:51:00 PM

Latest Report: Jun 25, 2016 at 11:00 PM


Visibility: 10 mi

Pressure: 29.80 "Hg (28.12 "Hg at 506m altitude)

Humidity: 39%

Dew Point: 48 °F

Location of ShymkentLocation

Past Weather in Shymkent — Graph

°F

Shymkent Temperature Yesterday

Maximum temperature yesterday: 90 °F (at 4:00 PM)
Minimum temperature yesterday: 61 °F (at 2:30 AM)
Average temperature yesterday: 77 °F

High & Low Weather Summary for the Past Weeks

 TemperatureHumidityPressure
High102 °F (Jun 14, 3:30 PM)100% (Jun 15, 12:00 PM)30.04 "Hg (Jun 15, 12:00 PM)
Low57 °F (Jun 22, 4:30 AM)13% (Jun 14, 4:00 PM)29.56 "Hg (Jun 14, 5:00 PM)
Average77 °F48%29.86 "Hg
* Reported Jun 10 10:00 PM — Jun 25 10:30 PM, Shymkent, Weather by CustomWeather, © 2016

Note: Actual official high and low records may vary slightly from our data, if they occured in-between our weather recording intervals... More about our weather records

Advertising

Shymkent Weather History for the Previous 24 Hours

Scroll right to see more
 ConditionsComfort  
Time TempWeatherWind HumidityBarometerVisibility
10:30 PM
Sat, Jun 25
77 °FClear.6 mph36%29.80 "Hg10 mi
10:00 PM79 °FPassing clouds.3 mph32%29.80 "HgN/A
9:30 PM79 °FClear.3 mph30%29.77 "Hg10 mi
9:00 PM86 °FSunny.3 mph24%29.77 "Hg10 mi
8:30 PM88 °FSunny.3 mph22%29.77 "Hg10 mi
8:00 PM90 °FPassing clouds.3 mph20%29.77 "HgN/A
7:30 PM90 °FPassing clouds.3 mph21%29.77 "HgN/A
7:00 PM91 °FSunny.3 mph20%29.77 "Hg10 mi
6:30 PM93 °FPassing clouds.3 mph16%29.77 "HgN/A
6:00 PM93 °FPassing clouds.6 mph16%29.80 "HgN/A
5:30 PM93 °FPassing clouds.6 mph13%29.80 "HgN/A
5:00 PM93 °FSunny.6 mph15%29.80 "Hg10 mi
4:30 PM93 °FPassing clouds.6 mph14%29.80 "HgN/A
4:00 PM93 °FPassing clouds.6 mph15%29.80 "HgN/A
3:30 PM93 °FSunny.3 mph15%29.80 "Hg10 mi
3:00 PM91 °FPassing clouds.6 mph18%29.83 "HgN/A
2:30 PM91 °FPassing clouds.6 mph17%29.83 "HgN/A
2:00 PM90 °FSunny.3 mph17%29.83 "Hg10 mi
1:30 PM90 °FPassing clouds.6 mph21%29.83 "HgN/A
1:00 PM90 °FSunny.6 mph18%29.83 "Hg10 mi
12:30 PM90 °FPassing clouds.3 mph20%29.83 "HgN/A
12:00 PM88 °FPassing clouds.6 mph18%29.86 "HgN/A
11:30 AM88 °FPassing clouds.6 mph19%29.86 "HgN/A
11:00 AM88 °FPassing clouds.6 mph24%29.86 "HgN/A
10:30 AM86 °FPassing clouds.3 mph25%29.86 "HgN/A
10:00 AM86 °FPassing clouds.3 mph25%29.86 "HgN/A
9:30 AM84 °FPassing clouds.3 mph29%29.86 "HgN/A
9:00 AM81 °FPassing clouds.3 mph32%29.86 "HgN/A
8:30 AM79 °FSunny.1 mph34%29.86 "Hg10 mi
8:00 AM73 °FSunny.3 mph44%29.86 "Hg10 mi
7:30 AM70 °FSunny.6 mph53%29.86 "Hg10 mi
7:00 AM66 °FSunny.8 mph60%29.83 "Hg10 mi
6:30 AM63 °FSunny.3 mph68%29.83 "Hg10 mi
6:00 AM63 °FSunny.3 mph68%29.83 "Hg10 mi
5:30 AM63 °FClear.3 mph64%29.83 "Hg10 mi
5:00 AM63 °FClear.3 mph64%29.83 "Hg10 mi
4:30 AM63 °FClear.6 mph64%29.83 "Hg10 mi
4:00 AM63 °FClear.6 mph68%29.83 "Hg10 mi
3:30 AM64 °FClear.3 mph60%29.83 "Hg10 mi
3:00 AM66 °FClear.3 mph56%29.83 "Hg10 mi
2:30 AM64 °FClear.3 mph60%29.83 "Hg10 mi
2:00 AM64 °FClear.3 mph60%29.83 "Hg10 mi
1:30 AM66 °FClear.6 mph56%29.86 "Hg10 mi
1:00 AM66 °FClear.3 mph56%29.86 "Hg5 mi
12:30 AM70 °FClear.3 mph43%29.86 "Hg4 mi
12:00 AM72 °FClear.6 mph38%29.86 "Hg4 mi
11:30 PM
Fri, Jun 24
70 °FClear.3 mph46%29.86 "Hg4 mi
11:00 PM73 °FClear.3 mph36%29.89 "Hg4 mi
Weather by CustomWeather, © 2016

See weather overviewHow to use our weather pages